Tracking 23439 objects as of 16-Jun-2021
HD Live streaming from Space Station
objects crossing your sky now

COSMOS 2041

Track COSMOS 2041 now!
10-day predictions
COSMOS 2041 is classified as:


NORAD ID: 20235
Int'l Code: 1989-074D
Perigee: 1,404.4 km
Apogee: 1,416.4 km
Inclination: 82.6 °
Period: 113.9 minutes
Semi major axis: 7781 km
RCS: 1.3161 m2 (large)
Launch date: September 14, 1989
Source: Commonwealth of Independent States (former USSR) (CIS)
Launch site: PLESETSK MISSILE AND SPACE COMPLEX (PKMTR)
aabbcc
Your satellite tracking list
Your tracking list is empty




NASA's NSSDC Master Catalog

Two Line Element Set (TLE):
1 20235U 89074D   21166.87738565  .00000034  00000-0  12687-3 0  9999
2 20235  82.5832 300.1744 0007655 295.7482 236.8383 12.64784765465537
Source of the keplerian elements: AFSPC